Location: Gand�
(15.0971°N, 12.6564°W)
Time: 15:04:22
(UTC+00:00)

USA 267 - Pass Details

Date: 07 August 2020
Orbit: 1102 x 1106 km, 123.0° (Epoch: 18 September)

Event Time Altitude Azimuth Distance (km) Brightness Sun altitude
Rises 05:34:53 0° 133° (SE) 3,908 6.5 -14.5°
Reaches altitude 10° 05:37:23 10° 130° (SE) 2,951 5.9 -13.9°
Maximum altitude 05:43:48 62° 51° (NE) 1,225 3.8 -12.5°
Drops below altitude 10° 05:50:12 10° 332° (NNW) 2,952 5.4 -11.0°
Sets 05:52:42 0° 329° (NNW) 3,911 6.0 -10.4°
